Weather History for Edinburg, TX

Change the Weather History Date:

Wednesday, February 13, 2013

  Actual Average (KMFE) Record (KMFE)
Temperature  
Mean Temperature 62 °F 64 °F  
Max Temperature 70 °F 75 °F 92 °F (2009)
Min Temperature 53 °F 54 °F 28 °F (1895)
Degree Days  
Heating Degree Days 4 4  
Month to date heating degree days 61  
Since 1 July heating degree days 488  
Cooling Degree Days 0 3  
Month to date cooling degree days 37  
Year to date cooling degree days 99  
Growing Degree Days 12 (Base 50)    
Moisture  
Dew Point 38 °F    
Average Humidity 42    
Maximum Humidity 69    
Minimum Humidity 18    
Precipitation  
Precipitation 0.00 in 0.05 in 1.20 in (1980)
Month to date precipitation 0.56  
Year to date precipitation 1.61  
Sea Level Pressure  
Sea Level Pressure 30.06 in    
Wind  
Wind Speed 8 mph (NNE)    
Max Wind Speed 17 mph    
Max Gust Speed 24 mph    
Visibility 7 miles    
Events Rain    
T = Trace of Precipitation, MM = Missing Value Source: NWS Daily Summary

Daily Weather History Graph

Daily Weather History Graph

Search for Another Location

Airport:

Trip Planner

Search our weather history database for the weather conditions in past years. The results will help you decide how hot, cold, wet, or windy it might be!

Date:

Astronomy

Feb. 13, 2013 Rise Set
Actual Time 7:09 AM CST 6:24 PM CST
Civil Twilight 6:45 AM CST 6:47 PM CST
Nautical Twilight 6:18 AM CST 7:15 PM CST
Astronomical Twilight 5:51 AM CST 7:42 PM CST
Moon 9:06 AM CST (2/13) 9:58 PM CST (2/13)
Length of Visible Light 12h 01m
Length of Day
11h 14m
Waxing Crescent, 14% of the Moon is Illuminated
Feb 13
Waxing Crescent
Feb 17
First Quarter
Feb 25
Full
Mar 4
Last Quarter
Mar 11
New

Hourly Weather History & Observations

Time (CST) Temp. Dew Point Humidity Pressure Visibility Wind Dir Wind Speed Gust Speed Precip Events Conditions
12:15 AM 67.3 °F 51.8 °F 58% 29.98 in 7.0 mi North 3.5 mph - N/A   Clear
12:35 AM 66.9 °F 51.8 °F 58% 29.97 in 7.0 mi North 4.6 mph - N/A   Clear
12:55 AM 66.6 °F 51.8 °F 59% 29.97 in 7.0 mi NNE 4.6 mph - N/A   Clear
1:15 AM 66.2 °F 52.0 °F 60% 29.99 in 10.0 mi NW 3.5 mph - N/A   Clear
1:35 AM 66.4 °F 52.0 °F 60% 29.98 in 7.0 mi North 3.5 mph - N/A   Clear
1:55 AM 65.3 °F 52.2 °F 62% 29.99 in 10.0 mi Calm Calm - N/A   Clear
2:15 AM 65.1 °F 52.2 °F 63% 29.99 in 7.0 mi NNW 4.6 mph - N/A   Clear
2:35 AM 64.6 °F 53.4 °F 67% 30.00 in 10.0 mi Calm Calm - N/A Rain Light Rain
2:55 AM 64.2 °F 53.4 °F 68% 29.99 in 7.0 mi NNW 4.6 mph - N/A   Clear
3:15 AM 63.5 °F 52.9 °F 68% 30.00 in 7.0 mi NW 5.8 mph - N/A   Clear
3:35 AM 63.0 °F 52.7 °F 69% 29.97 in 7.0 mi North 9.2 mph - N/A   Clear
3:55 AM 63.7 °F 52.5 °F 67% 30.01 in 7.0 mi North 4.6 mph - N/A   Clear
4:15 AM 64.0 °F 50.7 °F 62% 30.00 in 7.0 mi North 11.5 mph - N/A   Clear
4:35 AM 64.4 °F 48.7 °F 57% 30.01 in 7.0 mi North 10.4 mph - N/A   Clear
4:55 AM 65.3 °F 45.1 °F 48% 30.02 in 7.0 mi North 13.8 mph 19.6 mph N/A   Mostly Cloudy
5:15 AM 64.8 °F 44.2 °F 47% 30.02 in 7.0 mi North 17.3 mph 20.7 mph N/A   Mostly Cloudy
5:35 AM 64.6 °F 39.2 °F 39% 30.02 in 10.0 mi North 13.8 mph 24.2 mph N/A   Mostly Cloudy
5:55 AM 63.7 °F 41.2 °F 44% 30.04 in 7.0 mi North 15.0 mph - N/A   Scattered Clouds
6:15 AM 62.6 °F 43.7 °F 50% 30.05 in 7.0 mi North 16.1 mph 20.7 mph N/A   Scattered Clouds
6:35 AM 61.9 °F 44.2 °F 52% 30.07 in 7.0 mi North 16.1 mph - N/A   Scattered Clouds
6:55 AM 61.7 °F 43.9 °F 52% 30.07 in 7.0 mi North 16.1 mph 21.9 mph N/A   Scattered Clouds
7:15 AM 61.3 °F 45.1 °F 55% 30.09 in 7.0 mi North 12.7 mph 20.7 mph N/A   Scattered Clouds
7:35 AM 61.3 °F 44.4 °F 54% 30.09 in 7.0 mi North 17.3 mph 20.7 mph N/A   Mostly Cloudy
7:55 AM 61.7 °F 41.7 °F 48% 30.10 in 7.0 mi North 10.4 mph - N/A   Overcast
8:15 AM 61.9 °F 39.9 °F 44% 30.12 in 7.0 mi North 12.7 mph - N/A   Overcast
8:35 AM 62.1 °F 37.8 °F 41% 30.12 in 7.0 mi North 11.5 mph - N/A   Overcast
8:55 AM 62.2 °F 34.3 °F 35% 30.13 in 7.0 mi North 15.0 mph - N/A   Overcast
9:15 AM 62.6 °F 32.0 °F 32% 30.14 in 7.0 mi NNW 15.0 mph - N/A   Overcast
9:35 AM 63.3 °F 31.8 °F 31% 30.15 in 7.0 mi North 13.8 mph - N/A   Overcast
9:55 AM 63.5 °F 32.0 °F 31% 30.16 in 7.0 mi NNW 12.7 mph - N/A   Overcast
10:15 AM 64.2 °F 32.5 °F 31% 30.16 in 7.0 mi NNW 11.5 mph 17.3 mph N/A   Overcast
10:35 AM 65.1 °F 32.0 °F 29% 30.16 in 7.0 mi North 16.1 mph - N/A   Overcast
11:15 AM 65.5 °F 30.6 °F 27% 30.16 in 7.0 mi NNE 11.5 mph - N/A   Overcast
11:35 AM 65.3 °F 30.2 °F 27% 30.16 in 7.0 mi North 10.4 mph - N/A   Overcast
12:15 PM 66.0 °F 30.9 °F 27% 30.14 in 7.0 mi North 12.7 mph 17.3 mph N/A   Overcast
12:55 PM 66.7 °F 30.0 °F 25% 30.12 in 7.0 mi North 10.4 mph - N/A   Overcast
1:35 PM 68.9 °F 28.2 °F 22% 30.09 in 5.0 mi North 10.4 mph - N/A   Haze
2:35 PM 70.5 °F 27.0 °F 20% 30.05 in 7.0 mi North 9.2 mph 16.1 mph N/A   Scattered Clouds
2:55 PM 70.0 °F 26.6 °F 20% 30.05 in 5.0 mi North 9.2 mph 18.4 mph N/A   Haze
3:15 PM 70.2 °F 26.4 °F 19% 30.04 in 5.0 mi NNE 5.8 mph 16.1 mph N/A   Haze
3:35 PM 69.8 °F 23.9 °F 18% 30.03 in 7.0 mi NNE 10.4 mph - N/A   Clear
3:55 PM 69.4 °F 25.7 °F 19% 30.03 in 7.0 mi NNE 8.1 mph - N/A   Clear
4:15 PM 70.2 °F 26.1 °F 19% 30.02 in 7.0 mi NNE 13.8 mph - N/A   Clear
4:35 PM 70.2 °F 28.0 °F 21% 30.02 in 7.0 mi East 4.6 mph - N/A   Clear
4:55 PM 69.8 °F 27.9 °F 21% 30.02 in 7.0 mi ENE 6.9 mph - N/A   Clear
5:15 PM 69.8 °F 28.0 °F 21% 30.02 in 7.0 mi NE 5.8 mph - N/A   Clear
5:35 PM 68.9 °F 27.3 °F 21% 30.02 in 7.0 mi NE 8.1 mph - N/A   Clear
5:55 PM 67.5 °F 26.2 °F 21% 30.02 in 7.0 mi NE 8.1 mph - N/A   Clear
6:15 PM 66.6 °F 27.3 °F 23% 30.03 in 7.0 mi ENE 8.1 mph - N/A   Clear
6:35 PM 66.2 °F 27.5 °F 23% 30.03 in 10.0 mi ENE 9.2 mph - N/A   Clear
6:55 PM 65.8 °F 27.5 °F 24% 30.04 in 10.0 mi ENE 9.2 mph - N/A   Clear
7:15 PM 64.4 °F 35.8 °F 35% 30.04 in 7.0 mi East 10.4 mph - N/A   Clear
7:35 PM 63.3 °F 37.9 °F 39% 30.05 in 7.0 mi East 12.7 mph - N/A   Clear
8:15 PM 60.8 °F 39.4 °F 45% 30.06 in 7.0 mi East 10.4 mph - N/A   Clear
8:35 PM 59.9 °F 40.1 °F 48% 30.07 in 7.0 mi ESE 8.1 mph - N/A   Clear
8:55 PM 59.0 °F 39.4 °F 48% 30.09 in 7.0 mi East 5.8 mph - N/A   Clear
9:15 PM 58.3 °F 38.8 °F 48% 30.09 in 7.0 mi East 5.8 mph - N/A   Clear
9:35 PM 53.1 °F 38.8 °F 59% 30.09 in 10.0 mi East 5.8 mph - N/A   Clear
9:55 PM 57.4 °F 39.2 °F 51% 30.11 in 10.0 mi ESE 4.6 mph - N/A   Clear
10:15 PM 57.2 °F 39.2 °F 51% 30.11 in 10.0 mi ENE 3.5 mph - N/A   Clear
10:35 PM 55.4 °F 39.6 °F 55% 30.10 in 10.0 mi East 3.5 mph - N/A   Clear
10:55 PM 55.4 °F 39.2 °F 54% 30.12 in 10.0 mi SE 4.6 mph - N/A   Clear
11:15 PM 54.7 °F 39.2 °F 56% 30.12 in 7.0 mi Calm Calm - N/A   Clear
11:35 PM 54.9 °F 39.2 °F 56% 30.12 in 7.0 mi Calm Calm - N/A   Clear
11:55 PM 53.1 °F 38.3 °F 57% 30.12 in 7.0 mi Calm Calm - N/A   Clear